Weather in Magistralniy

Russia / Irkutsk Oblast     56°10′42″N   107°27′13″E
temp.,
°C
wind,
m/s
gust,
m/s
humid.,
%
clouds,
%
prec.,
mm/h
press.,
hPa
HPBL,
m
10 may, mon
mon1023:00+3nnw2296100 0.0 101146
02:00+2wnw219599 0.0 101121
05:000nw119465 0.0 101218
08:00+5n35765 0.0 1012521
11:00+10n45585 0.0 10121176
14:00+12nne554388 0.0 10112067
17:00+12nne463919 0.0 10122099
20:00+9n39635 0.1 1014436
11 may, tue
tue1123:00+4nw27835 0.0 1015140
02:00+2nw22895 0.0 101654
05:00+1nw26959 0.0 1017147
08:00+4nnw4885100 0.0 1018854
11:00+7n4662100 0.1 10181390
14:00+6n4657100 0.1 10181246
17:00+7n4553100 0.0 10181429
20:00+5nnw246675 0.2 1018128
12 may, wed
wed1223:00+1nw238283 0.0 101954
02:000nw228685 0.0 101930
05:00−2nw22915 0.0 101826
08:00+3n35585 0.0 10171001
11:00+6n3443100 0.2 10161842
14:00+7n4442100 0.7 10142035
17:00+7nnw454191 0.5 10131789
20:00+4n375858 0.7 1015419
13 may, thu
thu1323:000nw27789 0.0 1016153
02:00−2wnw22855 0.0 101741
05:00−3nw23865 0.0 101777
08:00+4n48565 0.0 1017890
11:00+8nne4534100 0.0 10162437
14:00+10nne4527100 0.0 10152791
17:00+10nne452584 0.0 10142636
20:00+7n22427 0.0 101526
14 may, fri
fri1423:00+2wnw11560 0.0 101710
02:000w11580 0.0 101710
05:00−1sw115917 0.0 101710
08:00+6sse23375 0.0 1015389
11:00+12sse342435 0.0 10122120
14:00+14s341947 0.0 10082503
17:00+15ssw451879 0.0 10062628
20:00+11s2233100 0.0 100614